Location: Villingen
(48.0639°N, 8.4609°E)
Time: 01:06:56
(UTC+01:00)

ISS - Visible Passes

Search period start: 24 February 2018 00:00
Search period end: 06 March 2018 00:00
Orbit: 402 x 407 km, 51.6° (Epoch: 24 February)

Date Brightness Start Highest point End Pass type
(mag) Time Alt. Az. Time Alt. Az. Time Alt. Az.
26 Feb -0.9 06:24:32 10° S 06:26:37 16° SE 06:28:41 10° E visible
28 Feb -2.1 06:15:25 10° SSW 06:18:21 30° SE 06:21:17 10° E visible
01 Mar -1.4 05:24:11 12° S 05:26:16 19° SE 05:28:39 10° E visible
02 Mar -0.8 04:34:22 11° SE 04:34:22 11° SE 04:35:17 10° ESE visible
02 Mar -3.4 06:07:02 11° SW 06:10:09 59° SSE 06:13:23 10° ENE visible
03 Mar -2.6 05:17:04 30° S 05:17:57 36° SE 05:21:00 10° ENE visible
04 Mar -1.2 04:26:59 18° ESE 04:26:59 18° ESE 04:28:26 10° E visible
04 Mar -3.9 05:59:38 18° WSW 06:02:00 79° NNW 06:05:18 10° ENE visible
05 Mar -3.8 05:09:28 66° S 05:09:42 70° SSE 05:12:58 10° ENE visible
